Location: Unspecified
(0.0000°N, 0.0000°E)
Time: 04:14:45
(UTC+00:00)

Vanguard 1 - Pass Details

Date: 15 December 2023
Orbit: 653 x 3826 km, 34.3° (Epoch: 22 February)

Event Time Altitude Azimuth Distance (km) Brightness Sun altitude
Rises 10:49:07 0° 224° (SW) 2,991 12.7 61.8°
Reaches altitude 10° 10:51:25 10° 217° (SW) 2,049 12.0 62.1°
Maximum altitude 10:55:41 48° 142° (SE) 911 11.9 62.6°
Drops below altitude 10° 11:00:59 10° 67° (ENE) 2,542 12.4 63.3°
Sets 11:04:09 0° 62° (ENE) 3,816 13.1 63.7°
